Weather in Cheremkhovo

Russia / Amur Oblast     50°23′26″N   127°47′42″E
temp.,
°C
wind,
m/s
gust,
m/s
humid.,
%
clouds,
%
prec.,
mm/h
press.,
hPa
HPBL,
m
14 june, mon
mon1400:00+18se22736 0.0 100718
03:00+16s2271100 0.0 100720
06:00+17se237427 0.0 1007107
09:00+23se345698 0.0 1006545
12:00+27se554991 0.0 10051272
15:00+28sse5645100 0.0 10031558
18:00+27se5860100 0.0 1001496
21:00+21sse3579100 0.0 100187
15 june, tue
tue1500:00+20se31179100 0.0 1002257
03:00+19se51273100 0.0 1001378
06:00+18se51176100 0.0 1002409
09:00+20sse6972100 0.9 1002661
12:00+23s71364100 0.1 10021317
15:00+19s61270100 0.1 10021136
18:00+17s51291100 0.8 1002810
21:00+17ssw61491100 1.9 1002654
16 june, wed
wed1600:00+16s3894100 0.1 1002310
03:00+16s3694100 0.1 1002224
06:00+16s239585 0.0 1003148
09:00+20sw227887 0.1 1003594
12:00+23wnw2263100 0.1 10031161
15:00+23nw1264100 0.1 1003738
18:00+24e2259100 0.0 10021065
21:00+19ne2277100 0.0 100214
17 june, thu
thu1700:00+17ese2290100 0.0 100027
03:00+17ese3995100 0.1 998222
06:00+18se51392100 2.1 996440
09:00+20sse71488100 3.6 995608
12:00+21sse71478100 1.6 9931054
15:00+19sse101591100 5.7 993966
18:00+18sse81491100 2.8 992731
21:00+17se51197100 10.1 992528
18 june, fri
fri1800:00+15sse61196100 1.4 993344
03:00+15se4997100 1.6 994277
06:00+15se4893100 0.1 995325
09:00+16se4586100 0.4 996603
12:00+14e1297100 4.2 996191
15:00+15se61196100 14.1 994764
18:00+15ese71393100 0.4 995823
21:00+14se4109690 0.6 997431